Theta_e
285 286 286 285 285 285 282 283 279 282 283 287 289 289 292 295 296 295 296 299 301 302 305 306 306 305 305 305 304 304 302 302 302 302 300 297 295 294 292 291 290 290 290 290
280 284 283 281 283 284 284 283 282 282 282 289 291 292 293 293 294 295 296 298 301 302 304 305 306 305 304 304 303 304 301 301 301 299 297 295 295 292 291 291 291 290 289 288
276 281 280 277 281 282 283 285 284 279 284 289 289 291 292 293 295 295 297 299 301 302 304 305 307 307 305 305 305 302 301 300 299 298 295 295 295 291 290 290 289 288 288 287
276 278 270 281 287 285 283 284 286 286 288 289 291 292 292 296 297 298 300 300 302 303 304 305 307 308 308 306 304 302 300 300 298 296 295 294 291 288 287 288 287 287 287 286
274 274 277 280 283 283 282 282 287 286 287 290 292 292 294 299 299 299 300 301 302 303 304 305 306 307 307 305 304 301 300 298 296 292 290 288 286 285 286 286 286 286 286 286
277 272 269 280 285 288 286 277 287 288 289 289 291 287 291 297 297 299 300 302 301 303 303 304 304 306 305 304 302 299 298 298 295 291 287 286 286 285 286 286 286 286 285 285
276 274 277 284 286 288 275 279 289 290 291 292 290 291 295 298 299 300 301 301 301 302 301 302 302 302 301 301 299 298 296 289 287 287 286 286 285 285 285 285 285 284 284 284
276 273 271 286 285 280 286 290 290 289 289 290 292 293 295 295 297 300 300 300 300 299 300 300 300 300 298 294 288 287 285 285 285 285 286 285 285 285 285 284 283 281 280 280
279 278 286 288 287 289 291 289 289 289 290 292 293 294 294 295 295 298 299 299 299 297 296 296 296 295 289 286 286 285 285 285 285 286 286 286 285 284 283 282 281 280 279 279
280 283 285 287 289 290 290 289 290 291 293 294 293 294 294 294 295 297 299 297 297 295 294 291 291 292 287 287 286 286 285 285 285 285 285 285 285 284 283 282 281 280 280 281
281 284 286 287 289 290 291 292 291 293 294 294 294 293 293 293 295 298 297 295 295 295 293 291 290 288 288 287 288 287 285 285 284 284 285 284 284 284 283 284 284 283 283 283
281 286 286 287 290 291 290 291 292 292 293 294 293 293 293 294 296 295 294 294 293 293 290 289 288 286 287 288 288 286 284 284 285 285 284 284 282 281 281 282 282 282 282 283
287 289 289 291 292 292 291 292 293 293 294 293 294 294 294 295 296 292 293 292 291 289 288 287 285 285 286 288 287 286 286 284 284 284 284 282 283 281 279 279 278 278 278 278
290 289 287 290 289 292 292 293 294 294 294 294 293 294 295 296 289 287 288 289 289 287 285 285 284 283 285 285 284 284 285 283 285 285 285 284 284 283 282 280 278 278 277 278
289 290 290 292 293 293 293 293 292 291 292 293 294 295 295 294 286 285 285 285 285 284 284 284 283 283 284 284 284 284 284 285 285 285 285 284 284 282 282 281 281 279 278 277
290 291 291 290 291 292 293 293 291 291 292 293 295 294 293 290 286 284 284 284 283 283 283 282 282 282 283 283 283 283 284 282 283 283 282 282 282 281 281 280 280 279 279 279
288 286 286 286 288 289 291 292 293 291 293 293 294 293 289 286 283 282 282 284 284 283 283 282 280 281 281 283 284 283 282 282 281 282 282 282 281 281 280 280 279 279 279 279
288 288 288 288 287 288 289 292 293 293 293 294 291 285 284 282 283 281 282 282 281 282 282 280 279 280 281 282 283 283 283 282 282 282 282 281 281 280 280 279 279 278 278 276
287 286 287 286 286 287 288 290 291 293 291 286 284 283 283 284 283 282 281 281 280 279 277 279 279 280 280 281 282 283 282 282 282 281 281 279 280 280 279 279 278 278 278 277
285 286 285 286 289 288 287 289 289 288 285 284 284 283 282 282 282 281 282 282 283 283 278 279 280 281 280 280 281 283 283 282 281 281 280 280 280 279 279 277 278 278 277 277
285 284 282 284 284 286 286 287 286 284 284 284 284 283 282 282 280 281 280 281 278 278 280 279 281 281 282 281 282 283 282 282 281 280 279 279 279 278 278 278 277 277 277 277
285 283 281 284 285 285 285 286 285 284 283 284 284 281 279 279 278 280 278 283 280 278 280 281 282 281 281 279 282 282 281 281 280 280 280 280 279 278 278 277 277 277 277 276
284 283 282 281 283 283 283 283 283 284 283 282 280 280 283 282 282 281 280 281 280 280 282 282 280 278 277 282 282 281 280 279 279 279 279 279 279 278 277 277 277 277 276 275
284 283 281 280 282 282 280 280 282 282 281 282 282 282 282 282 283 285 286 280 279 279 283 280 277 276 278 281 281 280 280 280 280 280 279 278 278 278 277 277 276 276 275 273
284 284 283 281 282 282 281 280 280 280 280 281 279 279 282 285 286 283 282 281 277 280 280 275 274 275 280 280 279 279 279 279 279 279 278 278 277 276 276 276 275 274 273 273
284 284 283 282 281 284 286 284 286 284 283 282 282 282 283 283 283 282 281 278 278 280 279 276 276 278 279 279 278 278 278 278 277 278 278 277 276 276 275 274 273 272 272 271
286 284 285 284 284 283 284 284 285 284 284 284 283 282 282 281 281 281 279 279 279 279 278 279 278 278 279 278 278 278 278 278 277 277 277 276 276 275 273 272 272 271 268 266
Wind_Speed
19 19 17 18 19 18 16 16 14 22 23 27 22 22 21 19 18 17 16 15 15 14 13 11 11 12 12 12 13 14 16 19 20 17 17 18 19 18 17 16 15 15 14 14
12 14 16 20 20 20 19 20 21 25 23 26 21 18 18 18 18 17 16 17 17 17 15 15 12 13 13 14 15 15 16 17 17 21 22 19 20 16 16 18 16 14 13 14
16 14 14 14 18 21 22 23 20 19 22 24 23 19 19 21 20 17 15 17 16 15 13 14 15 11 14 15 15 17 17 16 17 18 21 24 23 20 19 17 16 15 14 13
13 16 19 16 20 22 22 19 18 20 22 23 24 21 23 21 17 13 9 11 14 13 13 13 16 13 14 14 15 16 17 18 17 18 17 18 18 20 18 15 15 14 14 13
15 17 21 23 23 22 24 17 17 21 23 24 23 24 20 4 6 11 14 12 11 11 12 14 15 15 12 13 14 16 18 18 18 18 18 16 17 18 17 15 12 11 11 13
14 17 22 21 20 15 9 16 23 19 17 19 14 12 15 20 20 19 14 13 12 11 10 10 11 10 9 13 14 15 14 13 15 15 16 18 17 16 13 13 12 10 12 12
15 19 22 23 21 15 15 19 13 9 13 14 15 15 24 20 18 16 12 12 9 10 9 7 5 4 8 8 10 8 9 10 11 14 16 17 15 12 12 13 13 13 13 11
16 19 27 17 19 21 18 15 13 17 23 24 23 24 20 19 18 14 13 11 9 9 7 7 5 3 6 4 10 12 13 13 12 14 12 12 15 12 13 13 14 12 12 11
19 17 22 22 23 21 19 23 26 24 24 20 21 19 19 18 18 16 12 11 7 7 3 1 0 5 8 6 10 13 14 14 11 10 10 13 15 14 11 12 10 10 10 9
21 27 28 27 27 26 26 27 27 24 23 20 19 17 18 19 16 14 11 9 6 6 4 5 5 8 9 9 11 13 13 12 12 12 13 12 10 10 10 10 9 9 10 9
24 28 27 26 24 22 23 21 20 19 17 18 16 18 17 16 15 12 8 5 6 5 4 6 7 8 9 9 11 13 13 12 12 10 11 11 10 9 8 7 8 9 9 9
19 23 20 24 23 21 20 23 20 19 19 17 17 16 16 15 13 8 6 6 5 4 5 7 8 9 8 10 12 14 14 10 10 9 9 8 9 9 10 9 9 8 10 8
22 24 24 25 26 26 24 23 20 19 18 17 17 15 15 13 10 6 6 7 6 5 6 8 9 10 9 10 11 12 12 13 10 10 9 9 9 10 10 9 11 12 12 12
23 23 22 22 19 19 17 16 16 16 16 15 15 15 14 11 3 3 1 1 6 9 6 7 9 10 9 11 10 11 11 12 9 10 8 8 8 9 8 8 8 8 10 11
17 20 21 22 23 21 20 19 18 17 15 16 14 11 9 8 7 5 5 4 7 9 9 8 10 10 9 10 11 11 10 9 9 8 7 8 8 8 7 7 7 7 7 6
18 18 19 20 21 19 19 18 18 16 15 14 15 9 7 6 7 7 8 8 9 9 10 10 10 9 10 10 11 10 10 14 11 9 9 8 7 7 7 7 6 7 6 7
15 20 21 20 19 20 19 16 14 11 10 13 12 7 8 9 10 9 8 7 6 9 9 11 11 9 10 9 9 9 9 9 12 9 8 8 7 7 6 6 6 6 6 5
18 21 20 19 17 17 17 17 12 12 10 13 4 7 9 11 11 11 10 9 11 10 9 10 10 10 9 9 9 9 9 9 8 8 8 7 7 6 6 6 6 6 5 6
19 19 18 17 15 15 14 10 9 10 3 8 10 10 9 8 11 12 11 12 12 12 7 10 12 11 10 9 9 8 9 9 9 8 7 9 7 6 6 6 6 5 5 5
18 18 16 15 13 9 9 9 8 7 8 10 10 10 11 11 12 12 11 10 8 7 12 12 12 10 11 10 8 8 9 9 9 8 7 7 7 7 6 6 5 5 5 4
17 17 16 12 8 5 4 5 8 9 9 10 11 11 12 12 12 12 11 8 6 12 13 14 10 9 8 9 7 8 8 8 8 8 8 7 7 7 6 6 6 5 5 5
15 13 13 11 7 6 5 4 7 9 9 9 10 11 13 12 11 8 3 7 9 14 11 9 8 10 9 11 7 8 8 8 7 7 7 6 6 6 6 5 5 5 5 4
11 12 11 9 7 4 5 4 5 7 10 10 11 12 11 9 9 10 8 9 10 12 9 8 11 12 13 7 7 8 8 8 7 7 6 6 6 5 5 6 5 4 3 4
12 11 9 8 4 1 4 4 6 7 7 6 8 8 10 9 7 3 6 12 14 13 9 9 12 14 12 7 7 8 8 7 7 6 6 7 5 4 4 4 4 3 3 1
11 9 8 7 5 2 3 4 5 6 7 7 8 7 7 6 3 8 8 9 15 12 9 13 15 14 8 8 8 8 7 6 6 6 7 7 5 5 5 4 4 4 3 3
11 7 6 6 5 4 2 4 4 5 6 6 6 6 6 5 6 8 9 11 11 11 10 10 9 9 8 8 8 9 7 7 7 6 7 6 5 5 4 4 4 4 3 2
9 6 6 5 3 3 4 4 4 5 6 7 7 7 7 7 8 8 11 10 10 9 9 9 9 9 8 9 9 8 8 7 8 7 6 5 5 5 5 4 3 3 3 3
Wind_Direction
266 276 292 285 282 281 270 261 263 279 278 283 293 299 300 301 302 301 302 304 304 297 294 277 255 241 233 227 219 223 210 197 191 188 176 158 157 147 137 145 158 162 163 157
274 275 267 270 271 273 274 269 266 272 280 280 282 291 298 303 301 300 303 301 300 304 301 294 260 248 233 223 215 204 213 212 189 173 169 165 159 144 144 159 156 153 159 156
266 275 274 264 262 269 270 269 272 274 278 282 292 295 304 310 304 301 298 296 306 310 309 309 300 256 243 224 207 204 205 200 196 187 173 163 156 148 149 150 147 153 155 160
272 281 262 269 270 265 268 277 281 275 272 277 281 299 306 305 293 295 325 323 315 317 315 312 301 275 243 224 212 208 206 193 183 183 180 163 150 143 140 146 151 157 158 162
257 259 273 274 268 270 268 281 299 288 290 285 290 299 292 18 349 327 315 314 308 312 311 313 308 283 235 223 209 205 207 193 181 169 158 154 148 140 139 144 154 152 146 156
249 251 259 267 275 283 316 278 269 270 278 279 291 288 292 329 319 316 305 312 315 311 295 313 329 304 236 221 207 200 203 184 165 160 152 148 144 142 145 150 137 142 148 160
251 258 265 273 282 288 246 263 287 310 312 291 294 299 303 309 304 303 306 310 314 296 289 310 328 293 251 214 202 186 120 120 136 142 143 141 144 144 142 131 137 142 145 156
253 254 264 267 265 250 263 274 298 301 303 289 291 293 291 300 310 306 300 306 305 286 290 313 320 167 213 98 91 105 114 124 136 142 145 139 136 135 131 134 135 140 148 158
263 276 285 285 281 283 287 283 284 294 293 288 284 286 290 297 299 298 301 301 296 282 244 75 18 117 109 125 124 130 130 135 135 130 130 131 132 130 130 136 143 147 158 163
269 262 268 273 275 276 277 278 282 279 282 279 281 283 288 292 296 295 292 275 271 247 205 136 121 109 122 138 140 135 132 129 127 128 125 123 125 129 136 145 151 157 165 170
276 277 280 276 274 279 283 278 273 279 278 278 279 281 284 292 292 296 287 236 236 236 192 126 109 114 120 136 135 130 122 122 118 121 126 122 120 130 146 156 165 169 174 174
267 270 273 279 283 277 275 277 278 279 277 277 284 278 290 287 292 274 234 207 203 198 175 138 130 122 122 139 143 137 130 124 126 126 122 120 121 110 74 114 122 125 142 164
270 276 273 269 271 277 276 277 276 274 277 277 281 285 280 278 269 239 208 181 184 174 160 148 136 130 130 148 147 143 139 130 123 125 131 135 138 139 131 121 121 125 133 136
279 281 281 278 280 280 275 269 269 264 265 270 275 282 284 270 120 159 173 134 136 142 149 142 136 134 134 131 125 124 124 125 129 133 136 142 143 144 147 155 144 143 157 152
296 291 289 296 292 283 275 272 262 262 266 270 273 276 267 240 183 167 131 146 127 131 138 139 134 125 122 121 123 124 128 129 123 125 133 139 146 149 149 155 160 153 144 180
292 289 280 278 281 282 279 269 260 259 259 268 270 249 231 171 156 152 152 158 156 156 141 138 128 122 122 123 123 124 123 129 134 137 138 141 148 150 153 160 164 165 183 178
287 297 297 286 279 277 270 268 266 258 278 268 255 219 173 146 138 144 146 155 129 132 131 134 124 118 121 128 131 130 128 134 133 137 140 146 152 157 159 163 174 179 182 170
305 300 294 281 278 274 268 257 244 238 242 257 169 132 147 152 153 148 145 132 118 108 110 118 119 122 127 135 131 129 137 139 139 139 140 148 153 154 164 169 172 181 175 132
316 295 293 288 273 258 250 241 254 257 211 132 145 161 153 142 145 144 144 141 137 132 127 127 132 134 134 131 138 137 137 141 140 139 148 141 159 158 166 173 177 189 192 183
313 317 315 307 303 237 228 230 219 138 145 140 140 142 144 147 143 143 146 141 136 128 145 142 144 139 139 140 148 136 141 144 148 148 154 162 163 167 173 188 191 188 202 211
321 328 327 333 340 10 81 125 135 151 148 148 153 151 150 140 141 142 144 143 130 145 145 152 152 147 146 142 157 136 143 152 154 156 156 169 163 179 184 186 193 206 211 217
330 331 331 341 1 29 49 91 120 129 139 140 129 130 137 140 143 145 42 151 148 154 154 157 156 154 139 159 134 148 155 154 155 160 165 171 175 183 188 194 202 213 218 224
330 332 333 337 343 17 53 79 127 135 138 140 146 148 153 154 162 161 156 148 146 162 157 158 143 143 150 148 149 151 153 159 164 170 171 175 182 187 190 195 202 206 209 209
331 337 339 334 325 93 91 78 97 92 100 114 135 152 148 152 157 151 115 148 149 157 157 142 152 152 156 149 153 158 161 168 169 170 172 177 179 185 189 174 201 201 190 188
328 329 336 346 338 15 115 118 117 126 135 132 144 154 166 167 175 151 146 147 153 161 146 150 153 152 156 156 159 162 163 163 166 168 169 180 178 184 182 185 187 187 176 210
326 328 325 324 311 300 217 186 171 164 158 151 155 163 161 151 136 144 145 146 155 153 144 148 152 164 157 159 160 160 153 141 154 171 174 170 173 175 174 156 154 170 180 179
322 312 309 307 284 279 259 222 203 192 192 173 166 171 166 155 156 150 146 150 153 152 148 151 156 165 160 159 158 159 159 161 165 164 175 163 166 158 158 157 149 142 140 154